カタログに戻る

SL-16 DEB

LostLEO
NORAD 39868·DEBRIS·🇷🇺 Russia

打ち上げ Mar 26, 1993 から Baikonur Cosmodrome

Loading…

次のパス (今後24時間)

TLE

古いSource: Space-Track

元期: Sep 13, 2022, 22:43 UTC

1 39868U 93016AS  22256.94687649  .00005798  00000-0  25695-2 0  9991
2 39868  70.9603  94.8924 0129968 197.7275 161.9295 14.19057638912728

AllMySatでSL-16 DEBをリアルタイム追跡

Download on the App Store